EST,Max TemperatureF,Mean TemperatureF,Min TemperatureF,Max Dew PointF,MeanDew PointF,Min DewpointF,Max Humidity, Mean Humidity, Min Humidity, Max Sea Level PressureIn, Mean Sea Level PressureIn, Min Sea Level PressureIn, Max VisibilityMiles, Mean VisibilityMiles, Min VisibilityMiles, Max Wind SpeedMPH, Mean Wind SpeedMPH, Max Gust SpeedMPH,PrecipitationIn, CloudCover, Events, WindDirDegrees
2011-12-1,55,39,23,34,26,18,100,72,23,30.38,30.31,30.19,10,10,5,5,1,,0.00,0,,235
2011-12-2,62,42,23,37,26,14,100,70,15,30.50,30.42,30.39,10,10,7,5,0,,0.00,0,,28
2011-12-3,53,40,28,36,30,27,100,71,38,30.65,30.58,30.53,10,10,10,7,1,,0.00,0,,28
2011-12-4,55,42,28,45,35,28,100,78,51,30.57,30.50,30.41,10,9,5,4,1,,0.00,3,,289
2011-12-5,55,50,46,54,47,41,100,86,63,30.40,30.30,30.21,10,6,0,4,0,,0.03,8,Fog-Rain,335
2011-12-6,59,55,51,59,55,52,100,100,100,30.21,30.12,30.03,7,2,0,4,0,,0.31,8,Fog-Rain,350
2011-12-7,62,52,41,63,52,30,100,87,61,30.02,29.81,29.62,10,9,2,21,5,36,0.61,7,Rain,210
2011-12-8,50,39,28,32,23,14,93,58,30,30.32,30.25,30.10,10,10,10,13,5,23,0.00,0,,305
2011-12-9,50,39,28,37,31,27,100,82,46,30.36,30.30,30.24,10,9,7,5,0,,0.00,0,,226
2011-12-10,50,39,28,34,28,23,100,73,35,30.49,30.38,30.27,10,9,5,10,2,,0.00,0,,350
2011-12-11,26,22,19,25,21,18,100,92,86,30.59,30.53,30.50,10,9,7,4,1,,0.00,0,,338
2011-12-12,,,,,,,,,,,,,,,,,,,,,,
2011-12-13,64,54,44,50,43,41,93,74,42,30.43,30.41,30.39,10,10,10,5,1,,0.00,2,,327
2011-12-14,60,52,44,50,45,43,100,79,55,30.43,30.38,30.33,10,10,7,5,1,,0.03,5,,80
2011-12-15,68,52,35,52,46,36,100,84,52,30.31,30.22,30.12,10,6,0,13,2,21,0.00,3,Fog,209
2011-12-16,57,54,50,54,52,46,100,94,77,30.22,30.18,30.15,10,6,1,5,1,,0.34,7,Rain,214
2011-12-17,53,42,30,48,34,14,100,73,22,30.27,30.21,30.17,10,7,1,9,2,,0.00,3,,328
2011-12-18,51,40,28,30,24,19,86,59,28,30.36,30.31,30.25,10,10,10,8,4,,0.00,0,,293
2011-12-19,55,40,24,36,28,23,100,72,33,30.36,30.30,30.23,10,10,7,9,1,,0.00,0,,206
2011-12-20,55,42,30,52,39,30,100,87,50,30.25,30.21,30.16,10,10,7,8,0,,0.00,3,,240
2011-12-21,60,56,51,59,55,50,100,97,82,30.17,30.07,29.98,10,7,1,8,3,20,0.08,8,Rain,230
2011-12-22,62,58,53,63,59,54,100,97,77,30.15,30.05,29.93,10,6,0,12,2,20,1.07,8,Fog-Rain,186
2011-12-23,64,48,33,61,41,34,100,71,51,30.30,30.16,29.92,10,10,2,15,7,25,0.31,1,Rain,304
2011-12-24,51,42,32,37,33,30,100,78,44,30.47,30.40,30.30,10,9,5,6,1,,0.00,0,,59
2011-12-25,46,38,30,41,35,30,100,92,71,30.43,30.33,30.22,10,7,1,7,1,,0.00,3,,293
2011-12-26,51,40,28,34,27,21,93,59,32,30.42,30.31,30.24,10,10,10,13,4,18,0.00,0,,339
2011-12-27,50,44,37,45,37,28,100,85,61,30.21,29.86,29.62,10,8,1,16,3,26,0.78,7,Rain-Snow,274
2011-12-28,48,39,30,30,25,16,86,55,31,30.10,29.99,29.83,10,10,10,16,6,23,0.00,2,,263
2011-12-29,,,,,,,,,,,,,,,,,,,0.00,,,-1
2011-12-30,,,,,,,,,,,,,,,,,,,,,,
2011-12-31,,,,,,,,,,,,,,,,,,,,,,